Location: Newark
(45.9167°N, 5.5000°E)
Time: 11:03:54
(UTC+00:00)

ISS - Pass Details

Date: 24 January 2020
Orbit: 415 x 422 km, 51.6° (Epoch: 23 February)

Event Time Altitude Azimuth Distance (km) Brightness Sun altitude
Rises 17:18:43 0° 228° (SW) 2,368 1.5 -8.4°
Reaches altitude 10° 17:20:50 10° 224° (SW) 1,506 0.2 -8.8°
Maximum altitude 17:24:08 53° 146° (SSE) 524 -3.4 -9.3°
Enters shadow 17:26:51 14° 71° (ENE) 1,269 -2.0 -9.8°
